Tracking 18823 objects as of 21-October-2017
HD Live streaming from Space Station
objects crossing your sky now

OPS 9327 (IDSCS 14)

Track OPS 9327 (IDSCS 14) now!
OPS 9327 (IDSCS 14) is classified as:


NORAD ID: 2654
Int'l Code: 1967-003G
Perigee: 33,667.7 km
Apogee: 34,090.1 km
Inclination: 2.4 °
Period: 1,339.4 minutes
Semi major axis: 40249 km
RCS: 0.5011 m2 (medium)
Launch date: January 18, 1967
Source: United States (US)
Launch site: AIR FORCE EASTERN TEST RANGE (AFETR)
aabbcc
Your satellite tracking list
Your tracking list is empty





NASA's NSSDC Master Catalog

Two Line Element Set (TLE):
1  2654U 67003G   17293.28240456 -.00000126 +00000-0 +00000-0 0  9996
2  2654 002.3930 056.0272 0052480 338.1899 006.4739 01.07511637105475
Source of the keplerian elements: AFSPC